This demonstration page uses our WeatherBlox Daily Observations layout. Learn more.

Left ArrowRight Arrow

39.51506, -84.39828

Hourly Observations for December 6, 2015

Temp ( °F °C ) Dew Point ( °F °C ) Humidity (%) Winds ( mph kmh ) Pressure ( in mb ) Visibility ( mi km ) Precip ( " mm )
12:15 am 00:15 Cloudy with Fog 34 1.2 32 undefined 92 92 N N/A 30.62 1037 0.25 0.402335 N/A
12:35 am 00:35 Cloudy with Fog 34 1.2 32 undefined 92 92 N N/A 30.59 1036 0.25 0.402335 N/A
12:55 am 00:55 Cloudy with Fog 34 1.2 32 undefined 92 92 N N/A 30.59 1036 0.25 0.402335 N/A
1:15 am 01:15 Cloudy with Fog 34 1.2 32 undefined 92 92 E 3 6 30.59 1036 0.25 0.402335 N/A
1:35 am 01:35 Cloudy with Fog 34 1.2 32 undefined 92 92 N N/A 30.59 1036 0.25 0.402335 N/A
1:55 am 01:55 Cloudy with Fog 34 1.2 32 undefined 92 92 N N/A 30.59 1036 0.25 0.402335 N/A
2:15 am 02:15 Cloudy with Fog 34 1.2 32 undefined 92 92 N N/A 30.56 1035 0.25 0.402335 N/A
2:35 am 02:35 Cloudy with Light Snow 34 1.2 32 undefined 92 92 N 3 6 30.56 1035 0.25 0.402335 N/A
2:55 am 02:55 Cloudy with Fog 32 undefined 30 -1.3 91 91 N N/A 30.56 1035 0.25 0.402335 N/A
3:15 am 03:15 Cloudy with Light Snow 34 1.1 32 -0.1 92 92 NE 5 7 30.56 1035 0.25 0.402335 N/A
3:35 am 03:35 Cloudy with Light Snow 32 undefined 30 -1.3 91 91 NE 3 6 30.56 1035 0.25 0.402335 N/A
3:55 am 03:55 Cloudy with Light Snow 32 undefined 30 -1.3 91 91 N N/A 30.53 1034 0.25 0.402335 N/A
4:15 am 04:15 Cloudy with Freezing Fog 31 -0.4 29 -1.8 90 90 N N/A 30.53 1034 0.25 0.402335 N/A
4:35 am 04:35 Cloudy with Freezing Fog 31 -0.7 28 -2 91 91 N N/A 30.53 1034 0.25 0.402335 N/A
4:55 am 04:55 Cloudy with Freezing Fog 29 -1.5 27 -2.7 92 92 N N/A 30.53 1034 0.25 0.402335 N/A
5:15 am 05:15 Cloudy with Freezing Fog 29 -1.5 27 -2.7 92 92 N N/A 30.53 1034 0.25 0.402335 N/A
5:35 am 05:35 Cloudy with Freezing Fog 29 -1.5 27 -2.7 92 92 N N/A 30.53 1034 0.25 0.402335 N/A
5:55 am 05:55 Cloudy with Mist and Fog 29 -1.5 27 -2.7 92 92 N N/A 30.53 1034 2.5 4.02335 N/A
6:15 am 06:15 Cloudy with Mist and Fog 29 -1.5 27 -2.7 92 92 N N/A 30.53 1034 1.5 2.41401 N/A
6:35 am 06:35 Cloudy with Mist and Fog 29 -1.5 27 -2.7 92 92 N N/A 30.53 1034 2.5 4.02335 N/A
6:55 am 06:55 Cloudy with Freezing Fog 29 -1.5 27 -2.8 91 91 N N/A 30.53 1034 0.25 0.402335 N/A
7:15 am 07:15 Cloudy with Freezing Fog 29 -1.5 27 -2.8 91 91 N N/A 30.53 1034 0.25 0.402335 N/A
7:35 am 07:35 Cloudy with Freezing Fog 29 -1.5 27 -2.8 91 91 N N/A 30.53 1034 0.25 0.402335 N/A
7:55 am 07:55 Cloudy with Freezing Fog 29 -1.5 27 -2.9 90 90 N N/A 30.5 1033 5 8.0467 N/A
8:15 am 08:15 Cloudy with Freezing Fog 29 -1.5 27 -2.9 90 90 N N/A 30.5 1033 5 8.0467 N/A
8:35 am 08:35 Cloudy with Freezing Fog 29 -1.5 27 -2.9 90 90 N N/A 30.5 1033 5 8.0467 N/A
8:55 am 08:55 Cloudy with Freezing Fog 29 -1.5 27 -2.8 91 91 N N/A 30.5 1033 5 8.0467 N/A
9:15 am 09:15 Cloudy with Freezing Fog 29 -1.5 27 -2.8 91 91 N N/A 30.5 1033 5 8.0467 N/A
9:35 am 09:35 Cloudy with Freezing Fog 30 -1.2 27 -2.6 90 90 N N/A 30.48 1032 5 8.0467 N/A
9:55 am 09:55 Cloudy with Fog 32 undefined 29 -1.5 90 90 N N/A 30.48 1032 0.25 0.402335 N/A
10:15 am 10:15 Mostly Cloudy with Mist and Fog 34 1.2 32 undefined 92 92 N N/A 30.48 1032 1.5 2.41401 N/A
10:35 am 10:35 Partly Cloudy with Mist and Fog 34 1.2 32 undefined 92 92 N N/A 30.48 1032 2 3.21868 N/A
10:55 am 10:55 Sunny with Mist and Fog 37 2.6 34 1.3 91 91 SW 3 6 30.48 1032 4 6.43736 N/A
11:15 am 11:15 Sunny with Mist and Fog 37 2.7 35 1.4 91 91 WSW 3 6 30.48 1032 5 8.0467 N/A
11:35 am 11:35 Sunny with Mist and Fog 39 4 37 2.7 91 91 N N/A 30.45 1031 5 8.0467 N/A
11:55 am 11:55 Sunny 40 4.3 37 2.7 89 89 SW 5 7 30.45 1031 10 16.0934 N/A
12:15 pm 12:15 Sunny 40 4.7 37 3 89 89 SW 3 6 30.45 1031 10 16.0934 N/A
12:35 pm 12:35 Sunny 42 5.7 37 2.5 80 80 SW 7 11 30.45 1031 10 16.0934 N/A
12:55 pm 12:55 Sunny 47 8.2 37 2.6 68 68 S 5 7 30.39 1029 10 16.0934 N/A
1:15 pm 13:15 Sunny 49 9.2 37 2.8 65 65 SSW 3 6 30.39 1029 10 16.0934 N/A
1:35 pm 13:35 Sunny 49 9.6 37 2.6 62 62 SSW 6 9 30.36 1028 10 16.0934 N/A
1:55 pm 13:55 Sunny 49 9.6 35 1.8 59 59 S 3 6 30.36 1028 10 16.0934 N/A
2:15 pm 14:15 Sunny 49 9.6 34 0.9 55 55 S 5 7 30.36 1028 10 16.0934 N/A
2:35 pm 14:35 Sunny 50 10.1 33 0.8 53 53 N N/A 30.33 1027 10 16.0934 N/A
2:55 pm 14:55 Sunny 52 11.1 33 0.7 49 49 SW 3 6 30.33 1027 10 16.0934 N/A
3:15 pm 15:15 Sunny 55 12.5 34 1.2 46 46 N N/A 30.3 1026 10 16.0934 N/A
3:35 pm 15:35 Sunny 55 12.5 28 -2 37 37 S 8 13 30.27 1025 10 16.0934 N/A
3:55 pm 15:55 Sunny 55 12.5 29 -1.4 38 38 S 10 17 30.27 1025 10 16.0934 N/A
4:15 pm 16:15 Sunny 55 12.5 29 -1.6 38 38 S 12 19 30.27 1025 10 16.0934 N/A
4:35 pm 16:35 Sunny 55 12.5 30 -1.1 39 39 S 7 11 30.27 1025 10 16.0934 N/A
4:55 pm 16:55 Sunny 55 12.5 32 undefined 43 43 S 8 13 30.3 1026 10 16.0934 N/A
5:15 pm 17:15 Clear 49 9.6 31 -0.8 49 49 SSW 5 7 30.3 1026 10 16.0934 N/A
5:35 pm 17:35 Clear 49 9.6 33 0.8 55 55 SW 3 6 30.3 1026 10 16.0934 N/A
5:55 pm 17:55 Clear 42 5.6 33 0.5 70 70 N N/A 30.33 1027 10 16.0934 N/A
6:15 pm 18:15 Clear 39 4.1 32 0.2 76 76 N N/A 30.33 1027 10 16.0934 N/A
6:35 pm 18:35 Clear 38 3.6 32 undefined 78 78 N N/A 30.3 1026 10 16.0934 N/A
6:55 pm 18:55 Clear 39 4 34 0.9 80 80 N N/A 30.3 1026 10 16.0934 N/A
7:15 pm 19:15 Clear 37 2.6 32 -0.1 83 83 N N/A 30.3 1026 10 16.0934 N/A
7:35 pm 19:35 Clear 37 2.6 32 undefined 83 83 N N/A 30.3 1026 10 16.0934 N/A
7:55 pm 19:55 Clear 36 2.2 32 undefined 86 86 NNW 3 6 30.3 1026 10 16.0934 N/A
8:15 pm 20:15 Clear 35 1.6 31 -0.4 87 87 N N/A 30.3 1026 10 16.0934 N/A
8:35 pm 20:35 Clear 34 1.2 30 -0.9 86 86 N N/A 30.3 1026 10 16.0934 N/A
8:55 pm 20:55 Clear 34 1.2 30 -0.9 86 86 N N/A 30.3 1026 10 16.0934 N/A
9:15 pm 21:15 Clear 34 1.2 31 -0.8 87 87 N N/A 30.3 1026 10 16.0934 N/A
9:35 pm 21:35 Clear 34 1.2 31 -0.7 87 87 N N/A 30.3 1026 10 16.0934 N/A
9:55 pm 21:55 Clear 34 1.2 31 -0.7 87 87 N N/A 30.3 1026 10 16.0934 N/A
10:15 pm 22:15 Clear 34 1.2 31 -0.7 87 87 N N/A 30.3 1026 10 16.0934 N/A
10:35 pm 22:35 Mostly Cloudy 34 1.2 31 -0.7 87 87 N N/A 30.3 1026 10 16.0934 N/A
10:55 pm 22:55 Cloudy 34 1.2 31 -0.7 87 87 N N/A 30.27 1025 10 16.0934 N/A
11:15 pm 23:15 Cloudy 34 1.2 31 -0.6 88 88 N N/A 30.27 1025 10 16.0934 N/A
11:35 pm 23:35 Cloudy 37 2.6 33 0.5 86 86 N N/A 30.27 1025 10 16.0934 N/A
11:55 pm 23:55 Cloudy 37 2.6 33 0.5 86 86 N N/A 30.27 1025 10 16.0934 N/A

Powered by AerisWeather